Location: *
(32.3300°N, 34.8500°E)
Time: 20:16:01
(UTC+00:00)

ATLAS 3B R/B - Pass Details

Date: 22 October 2019
Orbit: 1029 x 1166 km, 63.8° (Epoch: 12 November)

Event Time Altitude Azimuth Distance (km) Brightness Sun altitude
Exits shadow 02:03:18 12° 332° (NNW) 2,709 4.6 -23.0°
Maximum altitude 02:09:39 84° 60° (ENE) 1,075 2.7 -21.7°
Drops below altitude 10° 02:16:36 10° 150° (SSE) 2,934 5.4 -20.2°
Sets 02:19:18 0° 151° (SSE) 3,909 6.1 -19.7°
